Regional Weather Roundup
Issued by NWS

Home | Current Version | Previous Version | Text Only | Print | Product List | Glossary Off
Versions: 1 2 3 4 5 6 7 8 9 10 11 12 13 14 15 16 17 18 19 20 21 22 23 24 25 26 27 28 29 30 31 32 33 34 35 36 37 38 39 40 41 42 43 44 45 46 47 48 49 50

000
ASUS43 KOAX 240302
RWRNE

WEATHER ROUNDUP FOR NEBRASKA
NATIONAL WEATHER SERVICE OMAHA NE
1000 PM CDT MON APR 23 2018

NOTES: SATELLITE DATA IS BEING USED TO AUGMENT CLOUD COVER ABOVE
       12000 FEET.
       "FAIR" INDICATES FEW OR NO CLOUDS BELOW 12,000 FEET WITH NO
       SIGNIFICANT WEATHER AND/OR OBSTRUCTIONS TO VISIBILITY.


NEZ001>004-019>022-054>056-240400-
NEBRASKA PANHANDLE

CITY           SKY/WX    TMP DP  RH WIND       PRES   REMARKS
SCOTTSBLUFF    CLOUDY    43  43 100 NW15G24   30.21R
ALLIANCE       RAIN      42  41  96 NW17G32   30.17R
CHADRON        CLOUDY    40  36  86 W22G29    30.21R WCI  30
GORDON         RAIN      45  42  91 W23G30    30.14R
KIMBALL        CLOUDY    42  40  93 N25G35    30.18R
SIDNEY         RAIN      46  45  96 NW32G41   30.16R FOG
$$

NEZ057>060-069>072-079>082-240400-
SOUTHWEST NEBRASKA

CITY           SKY/WX    TMP DP  RH WIND       PRES   REMARKS
NORTH PLATTE   CLEAR     49  40  71 E6        30.07R
IMPERIAL       CLEAR     52  42  69 E12       30.04R
LEXINGTON      PTCLDY    56  40  53 SE7       30.07S
MCCOOK         CLEAR     54  41  61 SE8       30.05R
OGALLALA       MOCLDY    55  42  60 E7        30.05R
$$

NEZ005>010-023>029-035>040-094-240400-
NORTH CENTRAL NEBRASKA

CITY           SKY/WX    TMP DP  RH WIND       PRES   REMARKS
VALENTINE      CLOUDY    61  41  47 SE9       30.07R
AINSWORTH      CLOUDY    55  42  61 SE6       30.09R
BROKEN BOW     PTCLDY    49  38  65 CALM      30.08R
O`NEILL        CLOUDY    60  40  47 E5        30.10R
ORD            PTCLDY    50  38  63 CALM      30.08R
THEDFORD       CLEAR     52  41  65 SE5       30.10R
$$

NEZ041-046>049-061>064-073>077-083>087-240400-
SOUTH CENTRAL NEBRASKA

CITY           SKY/WX    TMP DP  RH WIND       PRES   REMARKS
GRAND ISLAND   CLOUDY    60  42  51 SE3       30.09R
AURORA         CLOUDY    56  32  40 SE6       30.08R
HASTINGS       CLOUDY    54  41  61 CALM      30.09R
HEBRON         CLEAR     53  37  54 CALM      30.07R
HOLDREGE       CLOUDY    52  40  62 SE7       30.08R
KEARNEY        CLOUDY    56  41  57 SE5       30.09R
YORK             N/A     55  32  41 CALM      30.09R
$$

NEZ011>018-030>034-042>045-240400-
NORTHEAST NEBRASKA

CITY           SKY/WX    TMP DP  RH WIND       PRES   REMARKS
NORFOLK        PTCLDY    58  31  35 SE5       30.08R
ALBION         CLOUDY    58  43  56 CALM      30.09R
BLAIR          CLEAR     61  31  32 E6        30.08R
COLUMBUS       CLOUDY    52  33  48 E5        30.09R
FREMONT        PTCLDY    56  31  38 CALM      30.09R
TEKAMAH        CLEAR     55  32  41 E8        30.08R
WAYNE          CLOUDY    55  35  46 E9        30.10R
$$

NEZ050>053-065>068-078-088>093-240400-
SOUTHEAST NEBRASKA

CITY           SKY/WX    TMP DP  RH WIND       PRES   REMARKS
LINCOLN        CLEAR     54  31  41 N3        30.09R
OMAHA EPPLEY   PTCLDY    61  31  32 E9        30.07R
BEATRICE       CLEAR     58  31  35 CALM      30.07R
FALLS CITY     CLEAR     59  30  33 N3        30.06R
NEBRASKA CITY  CLEAR     61  32  33 E5        30.07S
PLATTSMOUTH    CLEAR     63  29  28 E8        30.07R
$$

NEZ044-045-051>053-067-240400-
OMAHA AREA

CITY           SKY/WX    TMP DP  RH WIND       PRES   REMARKS
OMAHA EPPLEY   PTCLDY    61  31  32 E9        30.07R
BLAIR          CLEAR     61  31  32 E6        30.08R
FREMONT        PTCLDY    56  31  38 CALM      30.09R
MILLARD        PTCLDY    60  34  38 CALM      30.08R
OFFUTT AFB     CLEAR     50  32  50 NE6       30.06R
PLATTSMOUTH    CLEAR     63  29  28 E8        30.07R
WAHOO          FAIR      56  25  29 N5        30.08R
$$




USA.gov is the U.S. government's official web portal to all federal, state and local government web resources and services.